カタログに戻る

STARLINK-5097

運用中通信VLEO
NORAD 53995·PAYLOAD·🇺🇸 United States

打ち上げ Oct 5, 2022 から Vandenberg Space Force Base

Loading…

次のパス (今後24時間)

TLE

最新Source: CelesTrak SupGP

元期: Sep 15, 2026, 02:27 UTC

1 53995C 22125AH  26258.10256944 -.00025696  00000+0 -75988-3 0  2584
2 53995  53.1589  77.1183 0001185  90.2105 285.6520 15.34374803    10

AllMySatでSTARLINK-5097をリアルタイム追跡

Download on the App Store